Change the Weather History Date:

Tuesday, March 25, 2014

  Actual Average (KYKM) Record (KYKM)
Temperature  
Mean Temperature 46 °F 45 °F  
Max Temperature 59 °F 59 °F 80 °F (1960)
Min Temperature 36 °F 32 °F 19 °F (2008)
Degree Days  
Heating Degree Days 18 20  
Month to date heating degree days 562  
Since 1 July heating degree days 5089  
Cooling Degree Days 0 0  
Month to date cooling degree days 0  
Year to date cooling degree days 0  
Moisture  
Dew Point 32 °F    
Average Humidity 59    
Maximum Humidity 79    
Minimum Humidity 36    
Precipitation  
Precipitation 0.00 in 0.02 in 0.35 in (2004)
Month to date precipitation 0.53  
Year to date precipitation 2.45  
Snow  
Snow 0.00 in 0.10 in 3.60 in (1955)
Month to date snowfall 0.7  
Year to date snowfall 8.6  
Since 1 July snowfall 21.6  
Snow Depth -    
Sea Level Pressure  
Sea Level Pressure 29.70 in    
Wind  
Wind Speed 6 mph (SSW)    
Max Wind Speed 18 mph    
Max Gust Speed 23 mph    
Visibility 10 miles    
Events Rain    
T = Trace of Precipitation, MM = Missing Value Source: NWS Daily Summary

Daily Weather History Graph

Daily Weather History Graph

Search for Another Location

Airport or City:

Trip Planner

Search our weather history database for the weather conditions in past years. The results will help you decide how hot, cold, wet, or windy it might be!

Date:

Astronomy

Mar. 25, 2014 Rise Set
Actual Time 6:54 AM PDT 7:21 PM PDT
Civil Twilight 6:24 AM PDT 7:52 PM PDT
Nautical Twilight 5:48 AM PDT 8:28 PM PDT
Astronomical Twilight 5:10 AM PDT 9:06 PM PDT
Moon 3:40 AM PDT (3/25) 1:40 PM PDT (3/25)
Length of Visible Light 13h 28m
Length of Day
12h 27m
Waning Crescent, 31% of the Moon is Illuminated
Mar 25
Waning Crescent
Mar 30
New
Apr 7
First Quarter
Apr 15
Full
Apr 22
Last Quarter

Hourly Weather History & Observations

Time (PDT) Temp. Windchill Dew Point Humidity Pressure Visibility Wind Dir Wind Speed Gust Speed Precip Events Conditions
12:53 AM 39.9 °F - 27.0 °F 60% 29.96 in 10.0 mi Calm Calm - N/A   Clear
1:53 AM 37.9 °F 33.5 °F 27.0 °F 65% 29.93 in 10.0 mi ESE 5.8 mph - N/A   Clear
2:53 AM 37.9 °F 35.5 °F 28.0 °F 68% 29.90 in 10.0 mi NNE 3.5 mph - N/A   Partly Cloudy
3:53 AM 37.9 °F 34.4 °F 28.0 °F 68% 29.86 in 10.0 mi East 4.6 mph - N/A   Scattered Clouds
4:53 AM 37.9 °F - 28.0 °F 68% 29.84 in 10.0 mi Calm Calm - N/A   Clear
5:53 AM 36.0 °F 32.1 °F 28.9 °F 76% 29.81 in 10.0 mi West 4.6 mph - N/A   Scattered Clouds
6:53 AM 36.0 °F 33.3 °F 30.0 °F 79% 29.79 in 10.0 mi West 3.5 mph - N/A   Mostly Cloudy
7:53 AM 39.9 °F 37.8 °F 30.9 °F 70% 29.80 in 10.0 mi NE 3.5 mph - N/A   Overcast
8:53 AM 42.1 °F 37.1 °F 33.1 °F 70% 29.77 in 10.0 mi South 8.1 mph - N/A   Overcast
9:53 AM 42.1 °F 38.4 °F 30.9 °F 65% 29.75 in 10.0 mi Variable 5.8 mph - 0.00 in Rain Light Rain
10:53 AM 48.0 °F - 32.0 °F 54% 29.71 in 10.0 mi SE 4.6 mph - 0.00 in   Partly Cloudy
11:53 AM 52.0 °F - 30.9 °F 45% 29.67 in 10.0 mi SSW 6.9 mph - N/A   Mostly Cloudy
12:53 PM 55.9 °F - 30.0 °F 37% 29.65 in 10.0 mi ESE 6.9 mph - N/A   Overcast
1:53 PM 57.9 °F - 34.0 °F 41% 29.61 in 10.0 mi South 10.4 mph - N/A   Mostly Cloudy
2:53 PM 52.0 °F - 42.1 °F 69% 29.61 in 7.0 mi South 13.8 mph 21.9 mph 0.00 in Rain Light Rain
3:53 PM 57.0 °F - 37.9 °F 49% 29.59 in 10.0 mi SSE 15.0 mph - 0.00 in   Partly Cloudy
4:53 PM 57.0 °F - 35.1 °F 44% 29.57 in 10.0 mi SSE 17.3 mph 21.9 mph N/A   Overcast
5:15 PM 57.9 °F - 30.9 °F 36% 29.56 in 10.0 mi WSW 16.1 mph 23.0 mph N/A   Overcast
5:53 PM 57.0 °F - 32.0 °F 39% 29.58 in 10.0 mi WSW 18.4 mph - N/A   Scattered Clouds
6:53 PM 52.0 °F - 33.1 °F 49% 29.58 in 10.0 mi SW 12.7 mph - N/A   Partly Cloudy
7:53 PM 48.0 °F - 33.1 °F 56% 29.59 in 10.0 mi WSW 9.2 mph - N/A   Scattered Clouds
8:53 PM 46.0 °F 44.8 °F 32.0 °F 58% 29.59 in 10.0 mi SSW 3.5 mph - N/A   Scattered Clouds
9:53 PM 42.1 °F 37.1 °F 33.1 °F 70% 29.60 in 10.0 mi NW 8.1 mph - N/A   Partly Cloudy
10:53 PM 43.0 °F 35.7 °F 34.0 °F 71% 29.61 in 10.0 mi NW 15.0 mph - N/A   Clear
11:53 PM 42.1 °F 35.2 °F 34.0 °F 73% 29.60 in 10.0 mi WNW 12.7 mph - N/A   Clear